• In Österreich
  • Länderverzeichnis
  • Für 7 Tage
  • Wassertemperatur
  • Satellitenkarten
  • Wetterkarte
  • News
  • Widgets
  • user-avatar
    Anmelden

    Stündliche Wetter Bukawu

    Heute, 22 September, Samstag

    Zeit Temperatur Niederschläge Wind Luftdruck Luftfeuchtigkeit
    00:00 +22°C° 0 mm 1 m/S 687 mmHg 92%
    01:00 +21°C° 0 mm 1 m/S 687 mmHg 90%
    02:00 +19°C° 0 mm 0 m/S 686 mmHg 89%
    03:00 +21°C° 0 mm 1 m/S 686 mmHg 89%
    04:00 +21°C° 0 mm 1 m/S 686 mmHg 89%
    05:00 +20°C° 0 mm 1 m/S 686 mmHg 89%
    06:00 +22°C° 0 mm 1 m/S 687 mmHg 84%
    07:00 +24°C° 0 mm 1 m/S 687 mmHg 79%
    08:00 +25°C° 0 mm 1 m/S 688 mmHg 74%
    09:00 +28°C° 0 mm 1 m/S 688 mmHg 63%
    10:00 +31°C° 0 mm 1 m/S 689 mmHg 51%
    11:00 +34°C° 0 mm 1 m/S 689 mmHg 40%
    12:00 +33°C° 0 mm 1 m/S 688 mmHg 42%
    13:00 +33°C° 0 mm 1 m/S 688 mmHg 44%
    14:00 +31°C° 0 mm 0 m/S 687 mmHg 46%
    15:00 +31°C° 0 mm 1 m/S 687 mmHg 54%
    16:00 +29°C° 0 mm 1 m/S 686 mmHg 61%
    17:00 +27°C° 0 mm 1 m/S 686 mmHg 69%
    18:00 +26°C° 0.1 mm 1 m/S 686 mmHg 75%
    19:00 +25°C° 0.1 mm 1 m/S 686 mmHg 80%
    20:00 +24°C° 0.1 mm 1 m/S 687 mmHg 86%
    21:00 +23°C° 0.5 mm 1 m/S 687 mmHg 87%
    22:00 +23°C° 0.5 mm 1 m/S 687 mmHg 88%
    23:00 +22°C° 0.5 mm 1 m/S 687 mmHg 89%

    Morgen, 23 September, Sonntag

    Zeit Temperatur Niederschläge Wind Luftdruck Luftfeuchtigkeit
    00:00 +22°C° 0.2 mm 1 m/S 687 mmHg 90%
    01:00 +22°C° 0.2 mm 1 m/S 686 mmHg 90%
    02:00 +21°C° 0.2 mm 1 m/S 686 mmHg 90%
    03:00 +21°C° 0.3 mm 1 m/S 686 mmHg 91%
    04:00 +21°C° 0.3 mm 1 m/S 686 mmHg 93%
    05:00 +20°C° 0.3 mm 1 m/S 686 mmHg 94%
    06:00 +22°C° 0.1 mm 1 m/S 687 mmHg 89%
    07:00 +23°C° 0.1 mm 1 m/S 687 mmHg 84%
    08:00 +25°C° 0.1 mm 1 m/S 688 mmHg 79%
    09:00 +28°C° 0 mm 1 m/S 689 mmHg 65%
    10:00 +32°C° 0 mm 1 m/S 689 mmHg 52%
    11:00 +35°C° 0 mm 1 m/S 690 mmHg 38%
    12:00 +35°C° 0 mm 1 m/S 689 mmHg 40%
    13:00 +34°C° 0 mm 1 m/S 688 mmHg 41%
    14:00 +32°C° 0 mm 0 m/S 687 mmHg 42%
    15:00 +30°C° 0 mm 0 m/S 686 mmHg 49%
    16:00 +29°C° 0 mm 0 m/S 686 mmHg 56%
    17:00 +27°C° 0 mm 0 m/S 685 mmHg 63%
    18:00 +27°C° 1.9 mm 1 m/S 686 mmHg 71%
    19:00 +25°C° 1.9 mm 1 m/S 686 mmHg 79%
    20:00 +24°C° 1.9 mm 2 m/S 686 mmHg 87%
    21:00 +23°C° 2.8 mm 2 m/S 687 mmHg 90%
    22:00 +22°C° 2.8 mm 1 m/S 687 mmHg 93%
    23:00 +22°C° 2.8 mm 1 m/S 687 mmHg 96%

    übermorgen, 24 September, Montag

    Zeit Temperatur Niederschläge Wind Luftdruck Luftfeuchtigkeit
    00:00 +21°C° 0.3 mm 1 m/S 687 mmHg 95%
    01:00 +21°C° 0.3 mm 1 m/S 686 mmHg 95%
    02:00 +19°C° 0.3 mm 0 m/S 686 mmHg 94%
    03:00 +19°C° 0.2 mm 0 m/S 686 mmHg 95%
    04:00 +18°C° 0.2 mm 0 m/S 685 mmHg 95%
    05:00 +18°C° 0.2 mm 0 m/S 685 mmHg 96%
    06:00 +19°C° 0 mm 0 m/S 686 mmHg 92%
    07:00 +21°C° 0 mm 0 m/S 687 mmHg 89%
    08:00 +22°C° 0 mm 0 m/S 688 mmHg 85%
    09:00 +24°C° 0 mm 0 m/S 688 mmHg 77%
    10:00 +26°C° 0 mm 0 m/S 688 mmHg 69%
    11:00 +28°C° 0 mm 0 m/S 689 mmHg 60%
    12:00 +29°C° 0 mm 0 m/S 688 mmHg 53%
    13:00 +33°C° 0 mm 1 m/S 687 mmHg 46%
    14:00 +35°C° 0 mm 1 m/S 687 mmHg 40%
    15:00 +33°C° 0.8 mm 1 m/S 686 mmHg 47%
    16:00 +31°C° 0.8 mm 1 m/S 686 mmHg 55%
    17:00 +30°C° 0.8 mm 1 m/S 685 mmHg 63%
    18:00 +27°C° 5 mm 1 m/S 686 mmHg 74%
    19:00 +24°C° 5 mm 2 m/S 686 mmHg 84%
    20:00 +21°C° 5 mm 2 m/S 687 mmHg 95%
    21:00 +22°C° 1.2 mm 1 m/S 687 mmHg 95%
    22:00 +21°C° 1.2 mm 1 m/S 688 mmHg 96%
    23:00 +21°C° 1.2 mm 1 m/S 688 mmHg 96%

    25 September, Dienstag

    Zeit Temperatur Niederschläge Wind Luftdruck Luftfeuchtigkeit
    00:00 +19°C° 0.3 mm 0 m/S 687 mmHg 97%
    01:00 +19°C° 0.3 mm 0 m/S 687 mmHg 97%
    02:00 +18°C° 0.3 mm 0 m/S 686 mmHg 97%
    03:00 +18°C° 0.1 mm 0 m/S 686 mmHg 98%
    04:00 +18°C° 0.1 mm 0 m/S 687 mmHg 98%
    05:00 +18°C° 0.1 mm 0 m/S 687 mmHg 98%
    06:00 +19°C° 0 mm 0 m/S 688 mmHg 96%
    07:00 +20°C° 0 mm 0 m/S 689 mmHg 93%
    08:00 +24°C° 0 mm 1 m/S 690 mmHg 90%
    09:00 +26°C° 0.3 mm 1 m/S 690 mmHg 81%
    10:00 +28°C° 0.3 mm 1 m/S 689 mmHg 72%
    11:00 +30°C° 0.3 mm 1 m/S 689 mmHg 62%
    12:00 +31°C° 0.4 mm 1 m/S 689 mmHg 59%
    13:00 +31°C° 0.4 mm 1 m/S 688 mmHg 55%
    14:00 +32°C° 0.4 mm 1 m/S 687 mmHg 51%
    15:00 +30°C° 0.1 mm 1 m/S 687 mmHg 59%
    16:00 +29°C° 0.1 mm 1 m/S 687 mmHg 67%
    17:00 +28°C° 0.1 mm 1 m/S 686 mmHg 75%
    18:00 +26°C° 0.5 mm 1 m/S 687 mmHg 81%
    19:00 +24°C° 0.5 mm 1 m/S 687 mmHg 87%
    20:00 +22°C° 0.5 mm 1 m/S 687 mmHg 94%
    21:00 +20°C° 1.2 mm 0 m/S 687 mmHg 95%
    22:00 +20°C° 1.2 mm 0 m/S 688 mmHg 96%
    23:00 +20°C° 1.2 mm 0 m/S 688 mmHg 97%

    26 September, Mittwoch

    Zeit Temperatur Niederschläge Wind Luftdruck Luftfeuchtigkeit
    00:00 +19°C° 0 mm 0 m/S 687 mmHg 97%
    01:00 +19°C° 0 mm 0 m/S 687 mmHg 97%
    02:00 +19°C° 0 mm 0 m/S 686 mmHg 97%
    03:00 +19°C° 0 mm 0 m/S 686 mmHg 97%
    04:00 +19°C° 0 mm 0 m/S 686 mmHg 97%
    05:00 +18°C° 0 mm 0 m/S 687 mmHg 97%
    06:00 +20°C° 0 mm 0 m/S 687 mmHg 94%
    07:00 +21°C° 0 mm 0 m/S 688 mmHg 91%
    08:00 +22°C° 0 mm 0 m/S 689 mmHg 87%
    09:00 +26°C° 0 mm 0 m/S 689 mmHg 73%
    10:00 +29°C° 0 mm 0 m/S 689 mmHg 59%
    11:00 +32°C° 0 mm 0 m/S 690 mmHg 45%
    12:00 +32°C° 0 mm 0 m/S 689 mmHg 46%
    13:00 +31°C° 0 mm 0 m/S 688 mmHg 47%
    14:00 +31°C° 0 mm 0 m/S 686 mmHg 48%
    15:00 +32°C° 0.7 mm 1 m/S 686 mmHg 53%
    16:00 +31°C° 0.7 mm 1 m/S 686 mmHg 57%
    17:00 +30°C° 0.7 mm 2 m/S 686 mmHg 62%
    18:00 +27°C° 4.4 mm 2 m/S 686 mmHg 73%
    19:00 +25°C° 4.4 mm 2 m/S 687 mmHg 84%
    20:00 +21°C° 4.4 mm 2 m/S 687 mmHg 95%
    21:00 +22°C° 0.1 mm 1 m/S 687 mmHg 94%
    22:00 +21°C° 0.1 mm 1 m/S 687 mmHg 93%
    23:00 +19°C° 0.1 mm 0 m/S 687 mmHg 93%

    27 September, Donnerstag

    Zeit Temperatur Niederschläge Wind Luftdruck Luftfeuchtigkeit
    00:00 +19°C° 0.3 mm 0 m/S 687 mmHg 94%
    01:00 +18°C° 0.3 mm 0 m/S 686 mmHg 95%
    02:00 +18°C° 0.3 mm 0 m/S 686 mmHg 97%
    03:00 +18°C° 0.1 mm 0 m/S 686 mmHg 97%
    04:00 +18°C° 0.1 mm 0 m/S 686 mmHg 97%
    05:00 +18°C° 0.1 mm 0 m/S 686 mmHg 97%
    06:00 +19°C° 0 mm 0 m/S 687 mmHg 93%
    07:00 +21°C° 0 mm 0 m/S 688 mmHg 89%
    08:00 +22°C° 0 mm 0 m/S 688 mmHg 85%
    09:00 +25°C° 0 mm 0 m/S 689 mmHg 72%
    10:00 +28°C° 0 mm 0 m/S 689 mmHg 59%
    11:00 +31°C° 0 mm 0 m/S 689 mmHg 46%
    12:00 +31°C° 0 mm 0 m/S 688 mmHg 47%
    13:00 +31°C° 0 mm 0 m/S 687 mmHg 48%
    14:00 +30°C° 0 mm 0 m/S 686 mmHg 49%
    15:00 +30°C° 0 mm 0 m/S 687 mmHg 54%
    16:00 +29°C° 0 mm 0 m/S 687 mmHg 58%
    17:00 +28°C° 0 mm 0 m/S 687 mmHg 63%
    18:00 +26°C° 1.1 mm 0 m/S 687 mmHg 72%
    19:00 +24°C° 1.1 mm 0 m/S 687 mmHg 81%
    20:00 +22°C° 1.1 mm 0 m/S 687 mmHg 90%
    21:00 +21°C° 0.8 mm 0 m/S 687 mmHg 92%
    22:00 +21°C° 0.8 mm 0 m/S 687 mmHg 93%
    23:00 +21°C° 0.8 mm 0 m/S 687 mmHg 95%
    Mehr zeigen